Orr, MN

6:27 PM CDT on March 29, 2017 (GMT -0500)
Orr Regional

Weather History for KORB - April, 2013

Change the Weather History Date:

Saturday, April 27, 2013

  Actual Average Record
Temperature  
Mean Temperature 52 °F -  
Max Temperature 66 °F 57 °F 77 °F (2007)
Min Temperature 39 °F 30 °F 21 °F (2008)
Degree Days  
Heating Degree Days 12    
Growing Degree Days 2 (Base 50)    
Moisture  
Dew Point 26 °F    
Average Humidity 36    
Maximum Humidity 61    
Minimum Humidity 21    
Precipitation  
Precipitation 0.00 in - - ()
Sea Level Pressure  
Sea Level Pressure 29.93 in    
Wind  
Wind Speed 5 mph (SSE)    
Max Wind Speed 17 mph    
Max Gust Speed 22 mph    
Visibility 10 miles    
Events      
Averages and records for this station are not official NWS values.
T = Trace of Precipitation, MM = Missing Value Source: NWS Daily Summary

Daily Weather History Graph

Daily Weather History Graph

Search for Another Location

Airport or City:

Trip Planner

Search our weather history database for the weather conditions in past years. The results will help you decide how hot, cold, wet, or windy it might be!

Date:

Astronomy

Apr. 27, 2013 Rise Set
Actual Time 5:59 AM CDT 8:19 PM CDT
Civil Twilight 5:25 AM CDT 8:53 PM CDT
Nautical Twilight 4:42 AM CDT 9:36 PM CDT
Astronomical Twilight 3:54 AM CDT 10:25 PM CDT
Moon 10:57 PM CDT (4/27) 7:11 AM CDT (4/27)
Length of Visible Light 15h 28m
Length of Day
14h 19m
Waning Gibbous, 95% of the Moon is Illuminated
Apr 27
Waning Gibbous
May 2
Last Quarter
May 9
New
May 17
First Quarter
May 24
Full

Hourly Weather History & Observations

Time (CDT) Temp. Windchill Dew Point Humidity Pressure Visibility Wind Dir Wind Speed Gust Speed Precip Events Conditions
12:13 AM 46.4 °F - 24.8 °F 43% 30.07 in 10.0 mi Calm Calm - N/A   Clear
12:33 AM 46.4 °F - 24.8 °F 43% 30.07 in 10.0 mi Calm Calm - N/A   Clear
12:53 AM 44.6 °F - 26.6 °F 49% 30.07 in 10.0 mi Calm Calm - N/A   Clear
1:13 AM 44.6 °F - 26.6 °F 49% 30.06 in 10.0 mi Calm Calm - N/A   Clear
1:33 AM 42.8 °F 41.1 °F 26.6 °F 53% 30.06 in 10.0 mi SE 3.5 mph - N/A   Clear
1:53 AM 42.8 °F - 26.6 °F 53% 30.05 in 10.0 mi Calm Calm - N/A   Clear
2:13 AM 42.8 °F - 26.6 °F 53% 30.05 in 10.0 mi Calm Calm - N/A   Clear
2:33 AM 42.8 °F - 26.6 °F 53% 30.05 in 10.0 mi Calm Calm - N/A   Clear
2:53 AM 42.8 °F - 26.6 °F 53% 30.04 in 10.0 mi Calm Calm - N/A   Clear
3:13 AM 41.0 °F - 26.6 °F 57% 30.05 in 10.0 mi Calm Calm - N/A   Clear
3:34 AM 41.0 °F - 26.6 °F 57% 30.04 in 10.0 mi Calm Calm - N/A   Clear
3:53 AM 41.0 °F - 26.6 °F 57% 30.04 in 10.0 mi Calm Calm - N/A   Clear
4:13 AM 39.2 °F - 26.6 °F 61% 30.04 in 10.0 mi Calm Calm - N/A   Clear
4:33 AM 41.0 °F 39.0 °F 26.6 °F 57% 30.03 in 10.0 mi SE 3.5 mph - N/A   Clear
4:53 AM 41.0 °F 39.0 °F 26.6 °F 57% 30.03 in 10.0 mi SE 3.5 mph - N/A   Clear
5:13 AM 39.2 °F - 26.6 °F 61% 30.03 in 10.0 mi Calm Calm - N/A   Clear
5:33 AM 39.2 °F 35.9 °F 26.6 °F 61% 30.02 in 10.0 mi SE 4.6 mph - N/A   Clear
5:53 AM 41.0 °F 39.0 °F 26.6 °F 57% 30.02 in 10.0 mi SE 3.5 mph - N/A   Clear
6:13 AM 39.2 °F 37.0 °F 26.6 °F 61% 30.02 in 10.0 mi SE 3.5 mph - N/A   Clear
6:33 AM 39.2 °F - 26.6 °F 61% 30.02 in 10.0 mi Calm Calm - N/A   Clear
6:53 AM 41.0 °F - 26.6 °F 57% 30.02 in 10.0 mi Calm Calm - N/A   Clear
7:13 AM 42.8 °F 41.1 °F 26.6 °F 53% 30.02 in 10.0 mi SE 3.5 mph - N/A   Clear
7:33 AM 42.8 °F 41.1 °F 26.6 °F 53% 30.02 in 10.0 mi SSE 3.5 mph - N/A   Clear
7:53 AM 46.4 °F 44.3 °F 26.6 °F 46% 30.02 in 10.0 mi SE 4.6 mph - N/A   Clear
8:13 AM 48.2 °F - 28.4 °F 46% 30.01 in 10.0 mi SSE 3.5 mph - N/A   Clear
8:33 AM 53.6 °F - 28.4 °F 38% 30.01 in 10.0 mi SSE 5.8 mph - N/A   Clear
8:53 AM 53.6 °F - 26.6 °F 35% 30.00 in 10.0 mi South 8.1 mph - N/A   Clear
9:13 AM 55.4 °F - 26.6 °F 33% 30.00 in 10.0 mi SSW 8.1 mph - N/A   Clear
9:33 AM 57.2 °F - 26.6 °F 31% 30.00 in 10.0 mi South 8.1 mph - N/A   Clear
9:53 AM 59.0 °F - 26.6 °F 29% 29.99 in 10.0 mi South 6.9 mph - N/A   Clear
10:13 AM 60.8 °F - 26.6 °F 27% 29.99 in 10.0 mi SSE 8.1 mph - N/A   Clear
10:33 AM 59.0 °F - 26.6 °F 29% 29.98 in 10.0 mi South 6.9 mph - N/A   Clear
10:53 AM 62.6 °F - 26.6 °F 26% 29.98 in 10.0 mi South 8.1 mph - N/A   Clear
11:13 AM 62.6 °F - 26.6 °F 26% 29.97 in 10.0 mi SSE 9.2 mph - N/A   Clear
11:33 AM 64.4 °F - 26.6 °F 24% 29.97 in 10.0 mi South 6.9 mph - N/A   Scattered Clouds
11:53 AM 64.4 °F - 24.8 °F 22% 29.96 in 10.0 mi South 11.5 mph 16.1 mph N/A   Scattered Clouds
12:14 PM 64.4 °F - 24.8 °F 22% 29.96 in 10.0 mi SSE 9.2 mph - N/A   Scattered Clouds
12:33 PM 66.2 °F - 24.8 °F 21% 29.95 in 10.0 mi South 9.2 mph 17.3 mph N/A   Scattered Clouds
12:53 PM 66.2 °F - 24.8 °F 21% 29.94 in 10.0 mi South 11.5 mph 17.3 mph N/A   Clear
1:13 PM 64.4 °F - 24.8 °F 22% 29.93 in 10.0 mi South 11.5 mph 17.3 mph N/A   Clear
1:33 PM 66.2 °F - 24.8 °F 21% 29.92 in 10.0 mi South 12.7 mph - N/A   Clear
1:53 PM 66.2 °F - 24.8 °F 21% 29.91 in 10.0 mi South 8.1 mph 17.3 mph N/A   Clear
2:13 PM 66.2 °F - 24.8 °F 21% 29.90 in 10.0 mi South 10.4 mph 16.1 mph N/A   Clear
2:33 PM 66.2 °F - 24.8 °F 21% 29.90 in 10.0 mi SSE 15.0 mph - N/A   Clear
2:53 PM 66.2 °F - 24.8 °F 21% 29.89 in 10.0 mi South 17.3 mph 21.9 mph N/A   Clear
3:13 PM 66.2 °F - 24.8 °F 21% 29.88 in 10.0 mi South 11.5 mph 18.4 mph N/A   Clear
3:33 PM 66.2 °F - 26.6 °F 23% 29.88 in 10.0 mi South 13.8 mph 20.7 mph N/A   Clear
3:53 PM 66.2 °F - 26.6 °F 23% 29.87 in 10.0 mi South 13.8 mph 20.7 mph N/A   Clear
4:13 PM 66.2 °F - 26.6 °F 23% 29.86 in 10.0 mi South 13.8 mph 19.6 mph N/A   Clear
4:33 PM 66.2 °F - 26.6 °F 23% 29.85 in 10.0 mi South 13.8 mph 20.7 mph N/A   Clear
4:53 PM 66.2 °F - 26.6 °F 23% 29.84 in 10.0 mi South 13.8 mph 20.7 mph N/A   Clear
5:13 PM 66.2 °F - 26.6 °F 23% 29.84 in 10.0 mi South 12.7 mph 20.7 mph N/A   Clear
5:33 PM 66.2 °F - 26.6 °F 23% 29.83 in 10.0 mi South 12.7 mph 16.1 mph N/A   Clear
5:53 PM 66.2 °F - 26.6 °F 23% 29.82 in 10.0 mi South 11.5 mph 20.7 mph N/A   Clear
6:13 PM 64.4 °F - 26.6 °F 24% 29.82 in 10.0 mi South 11.5 mph - N/A   Clear
6:33 PM 62.6 °F - 26.6 °F 26% 29.82 in 10.0 mi South 9.2 mph 17.3 mph N/A   Clear
6:54 PM 62.6 °F - 26.6 °F 26% 29.82 in 10.0 mi South 10.4 mph 16.1 mph N/A   Clear
7:13 PM 62.6 °F - 26.6 °F 26% 29.81 in 10.0 mi South 11.5 mph 16.1 mph N/A   Clear
7:33 PM 60.8 °F - 26.6 °F 27% 29.81 in 10.0 mi South 8.1 mph - N/A   Clear
7:53 PM 60.8 °F - 26.6 °F 27% 29.81 in 10.0 mi South 8.1 mph - N/A   Clear
8:13 PM 60.8 °F - 26.6 °F 27% 29.81 in 10.0 mi South 9.2 mph - N/A   Clear
8:33 PM 59.0 °F - 24.8 °F 27% 29.81 in 10.0 mi South 9.2 mph - N/A   Scattered Clouds
8:54 PM 57.2 °F - 24.8 °F 29% 29.81 in 10.0 mi South 9.2 mph - N/A   Scattered Clouds
9:13 PM 57.2 °F - 26.6 °F 31% 29.81 in 10.0 mi South 8.1 mph - N/A   Scattered Clouds
9:33 PM 55.4 °F - 26.6 °F 33% 29.81 in 10.0 mi South 8.1 mph - N/A   Scattered Clouds
9:53 PM 55.4 °F - 26.6 °F 33% 29.80 in 10.0 mi SSE 6.9 mph - N/A   Clear
10:13 PM 53.6 °F - 26.6 °F 35% 29.80 in 10.0 mi SSE 8.1 mph - N/A   Clear
10:33 PM 53.6 °F - 26.6 °F 35% 29.79 in 10.0 mi SSE 6.9 mph - N/A   Clear
10:53 PM 53.6 °F - 26.6 °F 35% 29.79 in 10.0 mi SSE 6.9 mph - N/A   Scattered Clouds
11:13 PM 53.6 °F - 28.4 °F 38% 29.78 in 10.0 mi SSE 8.1 mph - N/A   Scattered Clouds
11:33 PM 53.6 °F - 26.6 °F 35% 29.78 in 10.0 mi SSE 8.1 mph - N/A   Scattered Clouds
11:53 PM 53.6 °F - 26.6 °F 35% 29.77 in 10.0 mi South 8.1 mph - N/A   Scattered Clouds